Millinocket, ME

11:51 PM EST on February 08, 2016 (GMT -0500)
Millinocket Municipal

Weather History for KMLT - September, 2013

Change the Weather History Date:

Sunday, September 8, 2013

  Actual Average Record
Temperature  
Mean Temperature 54 °F 60 °F  
Max Temperature 62 °F 71 °F 92 °F (1945)
Min Temperature 45 °F 50 °F 30 °F (1952)
Degree Days  
Heating Degree Days 11 6  
Month to date heating degree days 40 38  
Since 1 July heating degree days 85 117  
Cooling Degree Days 0 1  
Month to date cooling degree days 13 10  
Year to date cooling degree days 365 261  
Growing Degree Days 4 (Base 50)    
Moisture  
Dew Point 49 °F    
Average Humidity 68    
Maximum Humidity 90    
Minimum Humidity 46    
Precipitation  
Precipitation 0.03 in 0.10 in 1.24 in (1958)
Month to date precipitation 2.00 0.84  
Year to date precipitation 27.49 27.77  
Snow  
Snow 0.00 in - - ()
Month to date snowfall 0.0  
Snow Depth 0.00 in    
Sea Level Pressure  
Sea Level Pressure 29.77 in    
Wind  
Wind Speed 7 mph (NW)    
Max Wind Speed 24 mph    
Max Gust Speed 32 mph    
Visibility 10 miles    
Events Rain    
T = Trace of Precipitation, MM = Missing Value Source: NWS Daily Summary

Daily Weather History Graph

Daily Weather History Graph

Search for Another Location

Airport or City:

Trip Planner

Search our weather history database for the weather conditions in past years. The results will help you decide how hot, cold, wet, or windy it might be!

Date:

Astronomy

Sep. 08, 2013 Rise Set
Actual Time 6:04 AM EDT 6:59 PM EDT
Civil Twilight 5:34 AM EDT 7:29 PM EDT
Nautical Twilight 4:58 AM EDT 8:05 PM EDT
Astronomical Twilight 4:20 AM EDT 8:42 PM EDT
Moon 9:31 AM EDT (9/8) 8:18 PM EDT (9/8)
Length of Visible Light 13h 54m
Length of Day
12h 54m
Waxing Crescent, 11% of the Moon is Illuminated
Sep 8
Waxing Crescent
Sep 12
First Quarter
Sep 19
Full
Sep 26
Last Quarter
Oct 4
New

Hourly Weather History & Observations

Time (EDT) Temp. Dew Point Humidity Pressure Visibility Wind Dir Wind Speed Gust Speed Precip Events Conditions
12:53 AM 59.0 °F 55.9 °F 90% 29.74 in 10.0 mi West 3.5 mph - 0.02 in   Overcast
1:13 AM 59.0 °F 55.4 °F 88% 29.72 in 10.0 mi Calm Calm - N/A   Overcast
1:53 AM 59.0 °F 55.9 °F 90% 29.72 in 10.0 mi Calm Calm - N/A   Overcast
2:53 AM 61.0 °F 57.0 °F 87% 29.72 in 10.0 mi West 4.6 mph - N/A   Overcast
3:05 AM 60.8 °F 57.2 °F 88% 29.70 in 10.0 mi West 4.6 mph - N/A   Overcast
3:34 AM 60.8 °F 57.2 °F 88% 29.69 in 10.0 mi Variable 3.5 mph - N/A   Overcast
3:53 AM 60.1 °F 57.0 °F 90% 29.70 in 10.0 mi WSW 4.6 mph - N/A   Overcast
4:28 AM 60.8 °F 57.2 °F 88% 29.67 in 10.0 mi WNW 4.6 mph - N/A   Overcast
4:53 AM 61.0 °F 57.0 °F 87% 29.68 in 10.0 mi Calm Calm - N/A   Overcast
5:02 AM 60.8 °F 57.2 °F 88% 29.67 in 10.0 mi Calm Calm - N/A   Overcast
5:48 AM 59.0 °F 57.2 °F 94% 29.67 in 10.0 mi Calm Calm - N/A   Overcast
5:53 AM 60.1 °F 57.9 °F 93% 29.69 in 10.0 mi West 3.5 mph - N/A   Overcast
6:53 AM 61.0 °F 57.0 °F 87% 29.69 in 10.0 mi Calm Calm - N/A   Overcast
7:35 AM 60.8 °F 55.4 °F 82% 29.68 in 10.0 mi North 12.7 mph 23.0 mph N/A   Overcast
7:53 AM 55.9 °F 52.0 °F 87% 29.70 in 10.0 mi NNE 6.9 mph - N/A   Overcast
8:53 AM 55.0 °F 50.0 °F 83% 29.73 in 10.0 mi NNE 8.1 mph - N/A   Overcast
9:53 AM 55.0 °F 50.0 °F 83% 29.73 in 10.0 mi North 6.9 mph - N/A   Overcast
10:53 AM 53.1 °F 46.0 °F 77% 29.75 in 10.0 mi North 8.1 mph - 0.00 in Rain Light Rain
11:53 AM 57.9 °F 46.0 °F 65% 29.75 in 10.0 mi NW 10.4 mph 23.0 mph 0.00 in   Mostly Cloudy
12:53 PM 57.9 °F 43.0 °F 58% 29.76 in 10.0 mi North 9.2 mph - N/A   Overcast
1:53 PM 61.0 °F 39.9 °F 46% 29.77 in 10.0 mi NW 17.3 mph 26.5 mph N/A   Clear
2:53 PM 59.0 °F 41.0 °F 51% 29.79 in 10.0 mi North 13.8 mph 19.6 mph 0.00 in   Scattered Clouds
3:53 PM 59.0 °F 41.0 °F 51% 29.81 in 10.0 mi NW 10.4 mph - 0.00 in   Overcast
4:53 PM 55.9 °F 43.0 °F 62% 29.84 in 10.0 mi NNW 8.1 mph - 0.03 in   Scattered Clouds
5:53 PM 54.0 °F 41.0 °F 62% 29.86 in 10.0 mi WNW 10.4 mph 20.7 mph 0.00 in   Clear
6:53 PM 52.0 °F 41.0 °F 66% 29.89 in 10.0 mi NW 6.9 mph - N/A   Clear
7:53 PM 51.1 °F 41.0 °F 68% 29.93 in 10.0 mi WNW 6.9 mph - N/A   Clear
8:53 PM 51.1 °F 37.0 °F 59% 29.96 in 10.0 mi WNW 5.8 mph - N/A   Clear
9:53 PM 48.9 °F 37.9 °F 66% 29.99 in 10.0 mi WNW 4.6 mph - N/A   Clear
10:53 PM 46.0 °F 39.0 °F 76% 30.00 in 10.0 mi Calm Calm - N/A   Clear
11:53 PM 48.0 °F 37.9 °F 68% 30.01 in 10.0 mi WNW 5.8 mph - N/A   Clear